Hiyodori — JD2366 — position and weather

sailwx.info

Track history (hours):
 
Tides and Currents Weather Stations Pressure Air Temp Water Temp Dewpoint Dewpoint Depression Visibility Wind Speed Wind Dir Waves Ship Positions

Hiyodori

Last reported at 2014-Oct-23 05:11 UTC. Time now 2014-Oct-23 11:03 UTC.
Position N 34°05' E 132°39'.

Length 88 m; draft 3.6 m.

Type: Cargo ship. MMSI: 431000132.

Date/timePositionNaut miles runAvg speedWind from/ knotsBaromVisibWave heightAir tempDewpointWater temp
2014-Oct-23 05:11N 34°05' E 132°39'15 9.5
2014-Oct-23 03:33N 34°11' E 132°22'1110.8
2014-Oct-23 02:33N 34°21' E 132°26'0 0.2
2014-Oct-23 01:34N 34°21' E 132°26'0 0.0
2014-Oct-23 00:33N 34°21' E 132°26'0 0.0
2014-Oct-22 23:33N 34°21' E 132°26'7 7.2
2014-Oct-22 22:34N 34°15' E 132°21'2 2.2
2014-Oct-22 21:33N 34°14' E 132°20'11 9.1
2014-Oct-22 20:21N 34°04' E 132°26'11912.1
2014-Oct-22 10:33N 34°33' E 134°45'1514.3
2014-Oct-22 09:29N 34°36' E 135°03'1111.4
2014-Oct-22 08:33N 34°39' E 135°16'2 1.7
2014-Oct-22 07:33N 34°40' E 135°14'3 2.6
2014-Oct-22 06:33N 34°41' E 135°17'0 0.2
2014-Oct-22 05:33N 34°41' E 135°17'3 3.2
2014-Oct-22 04:32N 34°40' E 135°14'0 0.0
2014-Oct-22 03:33N 34°40' E 135°14'3 2.8
2014-Oct-22 02:33N 34°41' E 135°17'0 0.1
2014-Oct-22 01:33N 34°41' E 135°17'1 1.3
2014-Oct-22 00:33N 34°40' E 135°15'1 1.3
2014-Oct-21 23:33N 34°40' E 135°14'3 3.1
2014-Oct-21 22:33N 34°37' E 135°15'0 0.0
2014-Oct-21 21:33N 34°37' E 135°15'3 3.0
2014-Oct-21 20:33N 34°35' E 135°12'1211.2
2014-Oct-21 19:31N 34°37' E 134°58'13212.0
2014-Oct-21 08:33N 34°07' E 132°23'9 6.1
2014-Oct-21 07:05N 34°13' E 132°15'0 0.0
2014-Oct-21 06:32N 34°13' E 132°15'0 0.0
2014-Oct-21 05:24N 34°13' E 132°15'0 0.2
2014-Oct-21 04:33N 34°13' E 132°15'126 9.6
2014-Oct-20 15:26N 34°33' E 134°46'1112.3
2014-Oct-20 14:33N 34°37' E 134°58'1111.5
2014-Oct-20 13:33N 34°36' E 135°12'6 6.0
2014-Oct-20 12:33N 34°41' E 135°17'0 0.0
2014-Oct-20 11:33N 34°41' E 135°17'0 0.0
2014-Oct-20 10:33N 34°41' E 135°17'0 0.0
2014-Oct-20 09:33N 34°41' E 135°17'0 0.3
2014-Oct-20 08:33N 34°41' E 135°16'2 2.5
2014-Oct-20 07:33N 34°40' E 135°14'0 0.1
2014-Oct-20 06:34N 34°40' E 135°14'6 6.1
2014-Oct-20 05:33N 34°33' E 135°15'1211.4
2014-Oct-20 04:32N 34°25' E 135°06'1211.1
2014-Oct-20 03:30N 34°15' E 134°59'1313.4
2014-Oct-20 02:33N 34°02' E 134°58'5 0.1
2014-Oct-18 06:25N 34°06' E 134°55'1112.7
2014-Oct-18 05:32N 34°17' E 134°58'1212.2
2014-Oct-18 04:33N 34°27' E 135°07'1212.5
2014-Oct-18 03:33N 34°36' E 135°16'4 4.4
2014-Oct-18 02:33N 34°41' E 135°17'2 2.3
2014-Oct-18 01:33N 34°39' E 135°15'0 0.0
2014-Oct-18 00:33N 34°39' E 135°15'0 0.0
2014-Oct-17 23:33N 34°39' E 135°15'2 2.3
2014-Oct-17 22:34N 34°41' E 135°17'0 0.0
2014-Oct-17 21:33N 34°41' E 135°17'0 0.0
2014-Oct-17 20:34N 34°41' E 135°17'0 0.0
2014-Oct-17 19:34N 34°41' E 135°17'0 0.0
2014-Oct-17 18:33N 34°41' E 135°17'0 0.0
2014-Oct-17 17:33N 34°41' E 135°17'0 0.0
2014-Oct-17 16:33N 34°41' E 135°17'0 0.0
2014-Oct-17 15:33N 34°41' E 135°17'0 0.0
2014-Oct-17 14:34N 34°41' E 135°17'0 0.0
2014-Oct-17 13:33N 34°41' E 135°17'7 6.5
2014-Oct-17 12:33N 34°35' E 135°13'1313.1
2014-Oct-17 11:33N 34°36' E 134°57'11812.8
2014-Oct-17 02:18N 34°02' E 132°40'11610.7
2014-Oct-16 15:31N 33°51' E 130°21'7 1.7
2014-Oct-16 11:12N 33°56' E 130°27'110 4.0
2014-Oct-15 07:32N 32°37' E 131°58'  
Track history (hours):
 
Tides and Currents Weather Stations Pressure Air Temp Water Temp Dewpoint Dewpoint Depression Visibility Wind Speed Wind Dir Waves Ship Positions

Hiyodori

Last reported at 2014-Oct-23 05:11 UTC. Time now 2014-Oct-23 11:03 UTC.
Position N 34°05' E 132°39'.

Length 88 m; draft 3.6 m.

Type: Cargo ship. MMSI: 431000132.

Date/timePositionNaut miles runAvg speedWind from/ knotsBaromVisibWave heightAir tempDewpointWater temp
2014-Oct-23 05:11N 34°05' E 132°39'15 9.5
2014-Oct-23 03:33N 34°11' E 132°22'1110.8
2014-Oct-23 02:33N 34°21' E 132°26'0 0.2
2014-Oct-23 01:34N 34°21' E 132°26'0 0.0
2014-Oct-23 00:33N 34°21' E 132°26'0 0.0
2014-Oct-22 23:33N 34°21' E 132°26'7 7.2
2014-Oct-22 22:34N 34°15' E 132°21'2 2.2
2014-Oct-22 21:33N 34°14' E 132°20'11 9.1
2014-Oct-22 20:21N 34°04' E 132°26'11912.1
2014-Oct-22 10:33N 34°33' E 134°45'1514.3
2014-Oct-22 09:29N 34°36' E 135°03'1111.4
2014-Oct-22 08:33N 34°39' E 135°16'2 1.7
2014-Oct-22 07:33N 34°40' E 135°14'3 2.6
2014-Oct-22 06:33N 34°41' E 135°17'0 0.2
2014-Oct-22 05:33N 34°41' E 135°17'3 3.2
2014-Oct-22 04:32N 34°40' E 135°14'0 0.0
2014-Oct-22 03:33N 34°40' E 135°14'3 2.8
2014-Oct-22 02:33N 34°41' E 135°17'0 0.1
2014-Oct-22 01:33N 34°41' E 135°17'1 1.3
2014-Oct-22 00:33N 34°40' E 135°15'1 1.3
2014-Oct-21 23:33N 34°40' E 135°14'3 3.1
2014-Oct-21 22:33N 34°37' E 135°15'0 0.0
2014-Oct-21 21:33N 34°37' E 135°15'3 3.0
2014-Oct-21 20:33N 34°35' E 135°12'1211.2
2014-Oct-21 19:31N 34°37' E 134°58'13212.0
2014-Oct-21 08:33N 34°07' E 132°23'9 6.1
2014-Oct-21 07:05N 34°13' E 132°15'0 0.0
2014-Oct-21 06:32N 34°13' E 132°15'0 0.0
2014-Oct-21 05:24N 34°13' E 132°15'0 0.2
2014-Oct-21 04:33N 34°13' E 132°15'126 9.6
2014-Oct-20 15:26N 34°33' E 134°46'1112.3
2014-Oct-20 14:33N 34°37' E 134°58'1111.5
2014-Oct-20 13:33N 34°36' E 135°12'6 6.0
2014-Oct-20 12:33N 34°41' E 135°17'0 0.0
2014-Oct-20 11:33N 34°41' E 135°17'0 0.0
2014-Oct-20 10:33N 34°41' E 135°17'0 0.0
2014-Oct-20 09:33N 34°41' E 135°17'0 0.3
2014-Oct-20 08:33N 34°41' E 135°16'2 2.5
2014-Oct-20 07:33N 34°40' E 135°14'0 0.1
2014-Oct-20 06:34N 34°40' E 135°14'6 6.1
2014-Oct-20 05:33N 34°33' E 135°15'1211.4
2014-Oct-20 04:32N 34°25' E 135°06'1211.1
2014-Oct-20 03:30N 34°15' E 134°59'1313.4
2014-Oct-20 02:33N 34°02' E 134°58'5 0.1
2014-Oct-18 06:25N 34°06' E 134°55'1112.7
2014-Oct-18 05:32N 34°17' E 134°58'1212.2
2014-Oct-18 04:33N 34°27' E 135°07'1212.5
2014-Oct-18 03:33N 34°36' E 135°16'4 4.4
2014-Oct-18 02:33N 34°41' E 135°17'2 2.3
2014-Oct-18 01:33N 34°39' E 135°15'0 0.0
2014-Oct-18 00:33N 34°39' E 135°15'0 0.0
2014-Oct-17 23:33N 34°39' E 135°15'2 2.3
2014-Oct-17 22:34N 34°41' E 135°17'0 0.0
2014-Oct-17 21:33N 34°41' E 135°17'0 0.0
2014-Oct-17 20:34N 34°41' E 135°17'0 0.0
2014-Oct-17 19:34N 34°41' E 135°17'0 0.0
2014-Oct-17 18:33N 34°41' E 135°17'0 0.0
2014-Oct-17 17:33N 34°41' E 135°17'0 0.0
2014-Oct-17 16:33N 34°41' E 135°17'0 0.0
2014-Oct-17 15:33N 34°41' E 135°17'0 0.0
2014-Oct-17 14:34N 34°41' E 135°17'0 0.0
2014-Oct-17 13:33N 34°41' E 135°17'7 6.5
2014-Oct-17 12:33N 34°35' E 135°13'1313.1
2014-Oct-17 11:33N 34°36' E 134°57'11812.8
2014-Oct-17 02:18N 34°02' E 132°40'11610.7
2014-Oct-16 15:31N 33°51' E 130°21'7 1.7
2014-Oct-16 11:12N 33°56' E 130°27'110 4.0
2014-Oct-15 07:32N 32°37' E 131°58'  

Dump ship's entire track history